Regional Weather Roundup
Issued by NWS

Home | Current Version | Previous Version | Graphics & Text | Print | Product List | Glossary On
Versions: 1 2 3 4 5 6 7 8 9 10 11 12 13 14 15 16 17 18 19 20 21 22 23 24 25 26 27 28 29 30 31 32 33 34 35 36 37 38 39 40 41 42 43 44 45 46 47 48 49 50
000
ASUS43 KOAX 101410
RWRNE

WEATHER ROUNDUP FOR NEBRASKA
NATIONAL WEATHER SERVICE OMAHA NE
800 AM CST SUN DEC 10 2017

NOTES: SATELLITE DATA IS BEING USED TO AUGMENT CLOUD COVER ABOVE
       12000 FEET.
       "FAIR" INDICATES FEW OR NO CLOUDS BELOW 12,000 FEET WITH NO
       SIGNIFICANT WEATHER AND/OR OBSTRUCTIONS TO VISIBILITY.


NEZ001>004-019>022-054>056-101500-
NEBRASKA PANHANDLE

CITY           SKY/WX    TMP DP  RH WIND       PRES   REMARKS
SCOTTSBLUFF    CLOUDY    25  11  55 NW9       30.36S WCI  15
ALLIANCE       CLOUDY    28  11  48 W13       30.30R WCI  17
CHADRON        CLEAR     38  11  32 SW17      30.29S WCI  28
GORDON         FAIR      37  15  41 W16       30.24S WCI  27
KIMBALL        CLOUDY    34   5  29 NW18      30.36S WCI  23
SIDNEY         CLEAR     39   7  26 W17G32    30.33S WCI  30
$$

NEZ057>060-069>072-079>082-101500-
SOUTHWEST NEBRASKA

CITY           SKY/WX    TMP DP  RH WIND       PRES   REMARKS
NORTH PLATTE   CLOUDY    21  15  78 NW10      30.25R WCI  10
IMPERIAL       CLOUDY    32   9  38 W12       30.30R WCI  23
LEXINGTON      CLEAR     34  13  42 NW12      30.22R WCI  25
MCCOOK         CLOUDY    35  12  38 W16       30.27R WCI  25
OGALLALA       CLOUDY    31  12  45 W9        30.29S WCI  23
$$

NEZ005>010-023>029-035>040-094-101500-
NORTH CENTRAL NEBRASKA

CITY           SKY/WX    TMP DP  RH WIND       PRES   REMARKS
VALENTINE      CLEAR     34  17  50 W8        30.19R WCI  27
AINSWORTH      CLEAR     39  17  40 NW10      30.17R WCI  32
BROKEN BOW     CLEAR     44  12  27 NW23G30   30.17S
O`NEILL        CLEAR     38  19  45 NW8       30.12R WCI  32
ORD            CLEAR     40  15  36 NW10      30.14R WCI  33
THEDFORD       CLEAR     36  15  42 W13       30.22R WCI  28
$$

NEZ041-046>049-061>064-073>077-083>087-101500-
SOUTH CENTRAL NEBRASKA

CITY           SKY/WX    TMP DP  RH WIND       PRES   REMARKS
GRAND ISLAND   CLEAR     39  17  41 NW13      30.16R WCI  31
AURORA         CLEAR     36  17  46 W7        30.13R WCI  30
HASTINGS       CLEAR     34  14  43 W10       30.16R WCI  26
HEBRON         CLEAR     36  17  44 W6        30.15R WCI  32
HOLDREGE       CLEAR     41  16  35 NW16      30.20S
KEARNEY        CLEAR     35  14  42 NW12      30.18S WCI  27
YORK           CLEAR     36  19  51 W13       30.13R WCI  27
$$

NEZ011>018-030>034-042>045-101500-
NORTHEAST NEBRASKA

CITY           SKY/WX    TMP DP  RH WIND       PRES   REMARKS
NORFOLK        CLEAR     38  20  48 NW12      30.08R WCI  30
ALBION         CLOUDY    35  18  50 NW7       30.11R WCI  29
BLAIR          CLOUDY    37  26  64 NW14      30.06R WCI  29
COLUMBUS       CLOUDY    38  20  48 W13       30.11R WCI  30
FREMONT        CLOUDY    36  24  60 NW10      30.08R WCI  28
TEKAMAH        CLOUDY    33  23  66 W7        30.07R WCI  27
WAYNE          CLEAR     34  21  58 NW8       30.07R WCI  28
$$

NEZ050>053-065>068-078-088>093-101500-
SOUTHEAST NEBRASKA

CITY           SKY/WX    TMP DP  RH WIND       PRES   REMARKS
LINCOLN        CLOUDY    37  19  48 W3        30.12R
OMAHA EPPLEY   CLOUDY    39  24  55 NW15      30.06R WCI  31
BEATRICE       CLOUDY    32  20  61 W6        30.12R WCI  26
FALLS CITY     CLOUDY    36  20  52 W13       30.07R WCI  27
NEBRASKA CITY  CLOUDY    37  23  57 NW15      30.08R WCI  28
PLATTSMOUTH    CLOUDY    36  24  63 NW8       30.07R WCI  29
$$

NEZ044-045-051>053-067-101500-
OMAHA AREA

CITY           SKY/WX    TMP DP  RH WIND       PRES   REMARKS
OMAHA EPPLEY   CLOUDY    39  24  55 NW15      30.06R WCI  31
BLAIR          CLOUDY    37  26  64 NW14      30.06R WCI  29
FREMONT        CLOUDY    36  24  60 NW10      30.08R WCI  28
MILLARD        CLOUDY    36  24  62 CALM      30.08R
OFFUTT AFB     CLOUDY    31  22  69 NW10      30.06R WCI  23
PLATTSMOUTH    CLOUDY    36  24  63 NW8       30.07R WCI  29
WAHOO          FAIR      35  22  59 W7        30.08R WCI  29
$$




USA.gov is the U.S. government's official web portal to all federal, state and local government web resources and services.